Time,TemperatureF,DewpointF,PressureIn,WindDirection,WindDirectionDegrees,WindSpeedMPH,WindSpeedGustMPH,Humidity,HourlyPrecipIn,Conditions,Clouds,dailyrainin,SoftwareType,DateUTC
2013-09-05 08:52:00,63.0,60.0,30.13,SW,223,0.0,0.0,90,0.00,,,0.00,,2013-09-05 12:52:00,
2013-09-05 09:12:00,64.0,61.0,30.13,SW,223,0.0,0.0,89,0.00,,,0.00,,2013-09-05 13:12:00,
2013-09-05 09:21:00,65.0,61.0,30.12,SW,223,0.0,3.0,88,0.00,,,0.00,,2013-09-05 13:21:00,
2013-09-05 09:53:00,67.0,63.0,30.13,SW,223,0.0,2.0,87,0.00,,,0.00,,2013-09-05 13:53:00,
2013-09-05 10:12:00,68.0,62.0,30.14,SW,223,0.0,2.0,82,0.00,,,0.00,,2013-09-05 14:12:00,
2013-09-05 10:22:00,70.0,64.0,30.14,WSW,257,0.0,4.0,80,0.00,,,0.00,,2013-09-05 14:22:00,
2013-09-05 10:42:00,72.0,63.0,30.14,NNW,348,0.0,3.0,74,0.00,,,0.00,,2013-09-05 14:42:00,
2013-09-05 10:52:00,73.0,63.0,30.14,NNE,28,0.0,4.0,70,0.00,,,0.00,,2013-09-05 14:52:00,
2013-09-05 11:11:00,75.0,65.0,30.14,NNE,26,1.0,5.0,70,0.00,,,0.00,,2013-09-05 15:11:00,
2013-09-05 11:22:00,76.0,64.0,30.15,NE,38,0.0,5.0,67,0.00,,,0.00,,2013-09-05 15:22:00,
2013-09-05 11:44:00,76.0,64.0,30.15,ENE,68,1.0,4.0,66,0.00,,,0.00,,2013-09-05 15:44:00,
2013-09-05 11:54:00,75.0,64.0,30.15,ENE,78,1.0,5.0,69,0.00,,,0.00,,2013-09-05 15:54:00,
2013-09-05 12:13:00,75.0,64.0,30.15,NE,35,0.0,4.0,69,0.00,,,0.00,,2013-09-05 16:13:00,
2013-09-05 12:24:00,76.0,64.0,30.15,NE,49,2.0,4.0,67,0.00,,,0.00,,2013-09-05 16:24:00,
2013-09-05 12:43:00,76.0,64.0,30.15,ENE,71,0.0,3.0,66,0.00,,,0.00,,2013-09-05 16:43:00,
2013-09-05 12:54:00,76.0,63.0,30.15,East,88,2.0,5.0,64,0.00,,,0.00,,2013-09-05 16:54:00,
2013-09-05 13:12:00,77.0,63.0,30.15,ESE,105,0.0,4.0,61,0.00,,,0.00,,2013-09-05 17:12:00,
2013-09-05 13:23:00,78.0,64.0,30.15,NE,38,2.0,4.0,62,0.00,,,0.00,,2013-09-05 17:23:00,
2013-09-05 13:43:00,79.0,64.0,30.15,East,94,2.0,5.0,60,0.00,,,0.00,,2013-09-05 17:43:00,
2013-09-05 13:52:00,80.0,63.0,30.15,ENE,59,1.0,5.0,56,0.00,,,0.00,,2013-09-05 17:52:00,
2013-09-05 14:12:00,80.0,64.0,30.15,ENE,59,2.0,7.0,58,0.00,,,0.00,,2013-09-05 18:12:00,
2013-09-05 14:22:00,80.0,64.0,30.14,ESE,103,1.0,4.0,59,0.00,,,0.00,,2013-09-05 18:22:00,
2013-09-05 14:32:00,80.0,64.0,30.14,ESE,103,1.0,4.0,59,0.00,,,0.00,,2013-09-05 18:32:00,
2013-09-05 14:52:00,80.0,66.0,30.14,NE,46,0.0,3.0,62,0.00,,,0.00,,2013-09-05 18:52:00,
2013-09-05 15:11:00,78.0,64.0,30.14,North,360,2.0,7.0,62,0.00,,,0.00,,2013-09-05 19:11:00,
2013-09-05 15:22:00,79.0,64.0,30.14,NE,35,2.0,6.0,61,0.00,,,0.00,,2013-09-05 19:22:00,
2013-09-05 15:42:00,79.0,64.0,30.14,NE,37,1.0,5.0,61,0.00,,,0.00,,2013-09-05 19:42:00,
2013-09-05 15:52:00,80.0,64.0,30.13,NW,317,0.0,4.0,59,0.00,,,0.00,,2013-09-05 19:52:00,
2013-09-05 16:11:00,81.0,65.0,30.12,NE,42,2.0,7.0,58,0.00,,,0.00,,2013-09-05 20:11:00,
2013-09-05 16:22:00,81.0,65.0,30.12,NNE,22,0.0,5.0,58,0.00,,,0.00,,2013-09-05 20:22:00,
2013-09-05 16:52:00,82.0,65.0,30.11,NE,55,0.0,3.0,56,0.00,,,0.00,,2013-09-05 20:52:00,
2013-09-05 17:21:00,82.0,66.0,30.11,West,279,0.0,4.0,58,0.00,,,0.00,,2013-09-05 21:21:00,
2013-09-05 17:54:00,82.0,66.0,30.10,ENE,58,1.0,5.0,59,0.00,,,0.00,,2013-09-05 21:54:00,
2013-09-05 18:13:00,81.0,66.0,30.10,NE,48,0.0,4.0,61,0.00,,,0.00,,2013-09-05 22:13:00,
2013-09-05 18:24:00,82.0,66.0,30.10,NNE,30,1.0,5.0,58,0.00,,,0.00,,2013-09-05 22:24:00,
2013-09-05 18:53:00,81.0,65.0,30.10,NNE,28,1.0,5.0,59,0.00,,,0.00,,2013-09-05 22:53:00,
2013-09-05 19:12:00,80.0,65.0,30.10,NNE,28,0.0,6.0,61,0.00,,,0.00,,2013-09-05 23:12:00,
2013-09-05 19:22:00,80.0,66.0,30.10,NE,56,0.0,4.0,62,0.00,,,0.00,,2013-09-05 23:22:00,
2013-09-05 19:53:00,78.0,65.0,30.10,NNE,32,0.0,3.0,64,0.00,,,0.00,,2013-09-05 23:53:00,
2013-09-05 20:12:00,77.0,64.0,30.10,NE,49,0.0,2.0,64,0.00,,,0.00,,2013-09-06 00:12:00,
2013-09-05 20:22:00,75.0,63.0,30.10,NNE,32,0.0,2.0,67,0.00,,,0.00,,2013-09-06 00:22:00,
2013-09-05 20:42:00,74.0,63.0,30.10,NE,53,0.0,2.0,69,0.00,,,0.00,,2013-09-06 00:42:00,
2013-09-05 20:52:00,72.0,62.0,30.10,NE,39,0.0,4.0,70,0.00,,,0.00,,2013-09-06 00:52:00,
2013-09-05 21:11:00,72.0,62.0,30.11,NE,39,0.0,0.0,71,0.00,,,0.00,,2013-09-06 01:11:00,
2013-09-05 21:22:00,71.0,62.0,30.11,NE,39,0.0,1.0,72,0.00,,,0.00,,2013-09-06 01:22:00,
2013-09-05 21:42:00,70.0,61.0,30.11,NE,39,0.0,1.0,74,0.00,,,0.00,,2013-09-06 01:42:00,
2013-09-05 21:52:00,69.0,60.0,30.12,NE,39,0.0,0.0,74,0.00,,,0.00,,2013-09-06 01:52:00,
2013-09-05 22:11:00,69.0,60.0,30.12,NE,40,0.0,0.0,74,0.00,,,0.00,,2013-09-06 02:11:00,
2013-09-05 22:22:00,69.0,61.0,30.13,NE,40,0.0,0.0,75,0.00,,,0.00,,2013-09-06 02:22:00,
2013-09-05 22:42:00,68.0,61.0,30.13,NE,40,0.0,0.0,77,0.00,,,0.00,,2013-09-06 02:42:00,
2013-09-05 22:52:00,67.0,60.0,30.13,NE,40,0.0,0.0,77,0.00,,,0.00,,2013-09-06 02:52:00,
2013-09-05 23:11:00,67.0,60.0,30.14,NE,42,0.0,0.0,79,0.00,,,0.00,,2013-09-06 03:11:00,
2013-09-05 23:22:00,65.0,59.0,30.14,NE,42,0.0,0.0,80,0.00,,,0.00,,2013-09-06 03:22:00,
2013-09-05 23:55:00,64.0,58.0,30.14,East,81,0.0,0.0,82,0.00,,,0.00,,2013-09-06 03:55:00,